Regional Weather Roundup
Issued by NWS Goodland, KS

Home | Current Version | Previous Version | Text Only | Print | Product List | Glossary Off
Versions: 1 2 3 4 5 6 7 8 9 10 11 12 13 14 15 16 17 18 19 20 21 22 23 24 25 26 27 28 29 30 31 32 33 34 35 36 37 38 39 40 41 42 43 44 45 46 47 48 49 50

000
ASUS43 KGLD 282108
RWRGLD

GOODLAND FORECAST AREA HOURLY WEATHER ROUNDUP
NATIONAL WEATHER SERVICE GOODLAND KS
300 PM MDT SUN MAY 28 2017

...OFFICIAL OBSERVATIONS...

CITY           SKY/WX    TMP DP  RH WIND       PRES   REMARKS
GOODLAND KS    MOSUNNY   74  42  31 N9G16     30.14F
HILL CITY KS   MOSUNNY   81  43  26 NW9       30.06F
IMPERIAL NEB   PTSUNNY   74  35  24 NW13      30.10S
MCCOOK NEB     MOSUNNY   82  40  22 NW14G26   30.05F
AKRON CO       PTSUNNY   71  34  25 NW9G17    30.19F
BURLINGTON CO  MOSUNNY   70  38  31 N5        30.18F
LIMON CO       MOSUNNY   67  35  30 NW8       30.25F
$$

...UNOFFICIAL OBSERVATIONS...

CITY           SKY/WX    TMP DP  RH WIND       PRES   REMARKS
LENORA KS        N/A     78  32  18 MISG        N/A
NORTON KS      MOSUNNY   79  39  24 W10       30.04S
SHARON SPRINGS   N/A     75  43  31 NE9         N/A
TRENTON NEB      N/A     72  32  23 NW8         N/A
$$




USA.gov is the U.S. government's official web portal to all federal, state and local government web resources and services.